DECAYED

FREGAT DEB, 45909 (Decayed)

Orbit data source: Space-Track

FREGAT DEB, 45909 was space debris in LEO originally from a launch on Mon, 18 Jul 2011 UTC launched from the Tyuratam Missile And Space Complex (TTMTR). Debris objects in space refer to the collection of defunct objects orbiting the Earth. Examples of debris include non-operational satellites, rocket bodies, and fragments generated from explosions, collisions, or faulty payload assembly.

Not visible in the next 10 days
FREGAT DEB details
Identifier
45909, 2011-037EE
Orbit
Decayed
Last TLE update5 months ago
Origin
Flag of CISVVKO VKS (CIS)
ManufacturerLavochkin
MissionDecayed spacecraft
Bus & MotorUnknown
MassUnknown
Launch date (UTC)
2011-07-18 (13 years ago)
Launch vehicleUnknown
Launch site
Tyuratam Missile And Space Complex (TTMTR)
Object type
Payload
Rocket body
Debris
Shape & HBRUnknown
Radar Cross SectionSmall (<0.1 m²)

Expand to show TLE details & history

TLE from 5 months ago
0 FREGAT DEB
1 45909U 11037EE  24177.66112808  .06291726  50178-1  28970-1 0  9994
2 45909  51.2844 343.0217 0046957  86.3952 274.2415 15.85688654175012
Epoch: 2024-06-25T15:52Z
Definitive object data (Epoch: 2024-06-25T15:52:01.466Z)
Latitude-0.00005°
Longitude-169.26266°
Altitude312.922 km
Speed7.723 km/s
True Right ascension22h 52m 05s
True Declination0° 00' 00"
Sunlit
Object was in full shadow at TLE epoch
Visualization observer readout
Observer readout values are unavailable because the object's trajectory could not be propagated. This is usually caused when the trajectory data is faulty or the object's orbit has decayed.
Visualization observer readout
Observer readout values are unavailable because the object's trajectory could not be propagated. This is usually caused when the trajectory data is faulty or the object's orbit has decayed.
Orbital elements
Apogee altitude346.39 km
Perigee altitude283.533 km
Semi-major axis6,693.099 km
Eccentricity0.0046957
Inclination51.2844°
RAAN343.0217°
Arg. of periapsis86.3952°
True anomaly273.70466°
Mean anomaly274.2415°
Eccentric anomaly273.9731°
Mean motion3.96371 °/min
BSTAR0.02897
Orbital period90.82 mins
Loading maneuver chart data...
Loading historical data...
Loading historical data...
Loading historical data...
Loading historical data...
Loading historical data...
Loading historical data...
Loading historical data...

FREGAT DEB Visibility forecast

Observer location: undefined°, undefined

This satellite is decayed
Span
Click to sort rows by Start time (UTC) header in descending order
Start Az.
Max El. time (UTC)
Max El. Az.
Max El.
End time (UTC)
End Az.
|